Theta_e
296 297 297 297 298 298 297 297 297 299 300 300 302 303 305 307 310 312 314 314 313 313 312 312 313 313 314 313 311 311 311 310 311 304 294 292 290 289 289 290 288 291 291
294 294 294 294 295 295 295 294 294 295 297 297 298 298 299 300 301 302 303 305 307 307 308 307 308 308 308 309 307 306 306 308 309 308 291 289 289 288 288 287 286 290 288
292 291 291 291 291 292 292 292 293 292 293 293 294 294 295 295 296 297 297 298 299 300 302 305 306 304 303 303 301 301 301 302 301 295 290 288 287 287 285 285 285 285 288
289 289 288 288 288 289 289 289 290 290 290 290 291 291 291 292 292 292 293 293 295 296 298 299 300 300 301 301 299 298 297 294 293 293 289 286 286 285 285 283 281 283 283
287 286 285 286 286 286 286 286 287 287 287 287 287 288 288 289 290 289 289 289 290 290 291 293 293 293 291 294 296 295 293 292 290 291 288 286 283 281 282 283 283 281 281
283 283 283 283 283 283 283 284 284 284 285 285 285 285 285 286 290 291 290 288 287 287 287 288 288 288 289 291 292 293 293 291 290 290 290 288 288 285 284 282 282 279 278
281 281 280 280 280 281 281 282 282 282 282 282 282 283 283 283 288 290 290 286 285 285 285 285 286 286 285 285 288 291 291 292 293 290 287 288 288 286 284 282 282 281 280
279 279 279 279 279 280 280 280 280 280 280 280 281 281 281 283 287 288 288 285 284 284 283 284 284 284 284 283 283 284 284 285 287 288 288 288 286 286 286 285 283 281 277
278 278 278 278 278 278 278 278 278 279 279 280 281 280 280 281 285 286 286 283 283 283 283 282 282 283 285 287 283 282 282 282 283 285 285 286 288 287 285 282 279 275 272
277 277 277 277 277 276 277 277 278 278 280 280 280 280 279 279 283 285 285 283 282 282 283 282 282 281 285 286 283 282 280 281 278 278 280 283 285 284 286 282 280 277 274
277 276 276 276 276 276 277 277 277 277 278 277 277 278 278 279 280 284 285 283 282 281 281 282 281 284 285 286 287 282 281 282 279 277 275 274 276 278 278 278 280 279 275
274 274 273 273 275 276 275 276 275 275 274 274 274 276 276 278 280 282 284 284 285 281 281 282 282 285 286 286 285 286 287 285 273 272 270 271 273 274 274 274 275 274 276
270 268 269 272 274 275 274 274 273 272 272 273 274 274 275 277 277 281 282 283 283 281 281 282 284 285 286 285 285 285 283 279 273 269 271 272 273 273 273 272 272 272 273
267 269 270 270 271 272 273 273 272 271 271 273 274 276 277 278 278 279 281 282 281 281 281 279 281 283 285 283 279 280 280 277 275 274 274 274 273 271 270 271 270 270 269
269 269 269 269 268 269 271 271 272 274 274 273 275 275 276 276 277 281 281 281 281 282 282 282 280 276 276 277 278 277 273 274 274 274 272 271 272 271 270 270 269 268 267
267 267 267 267 267 268 268 269 274 276 278 279 280 279 278 280 280 281 281 282 282 283 280 279 279 278 275 276 275 274 272 273 274 274 273 272 271 270 270 269 269 267 266
265 267 266 266 266 266 267 267 267 271 275 276 277 278 278 278 279 280 280 281 281 281 278 278 278 277 275 275 275 276 273 273 274 274 273 272 272 270 270 269 268 267 266
260 262 264 264 264 264 265 266 266 266 266 267 272 274 276 277 277 278 278 278 273 274 274 274 276 277 277 274 275 275 274 274 272 273 273 272 271 270 269 268 268 267 267
260 260 261 261 261 262 263 264 264 264 265 266 267 270 270 273 274 275 276 270 269 270 271 272 273 275 275 275 275 276 275 274 272 272 272 271 270 270 269 269 268 267 267
255 259 260 258 259 260 261 263 263 263 264 264 265 266 267 266 267 269 269 269 269 270 271 271 272 273 274 275 275 275 275 273 272 271 271 271 270 270 269 268 267 266 266
255 255 258 257 256 258 260 261 262 263 263 263 264 266 271 269 267 267 266 266 267 267 268 269 270 270 270 271 274 274 274 273 272 271 271 270 269 268 269 269 268 267 266
254 254 254 254 257 258 259 260 262 262 262 262 263 264 270 265 265 265 265 266 266 267 268 268 268 268 268 269 272 273 273 272 271 270 270 270 269 268 268 267 267 266 265
254 254 254 255 255 258 259 257 260 261 261 262 262 263 263 263 263 264 264 265 265 266 267 267 267 267 267 269 271 271 272 272 271 271 270 269 268 267 267 266 265 264 263
253 253 254 255 254 254 256 258 259 260 260 261 261 261 262 262 263 263 264 264 264 265 265 266 266 266 266 267 268 269 270 271 271 270 269 268 266 266 265 265 264 264 263
251 251 251 253 254 255 256 258 259 259 260 260 260 261 261 262 262 263 263 264 264 264 264 265 265 265 265 265 266 267 268 269 270 269 268 267 266 265 264 264 263 263 262
251 251 251 252 254 254 255 258 259 259 259 260 260 261 261 261 262 262 262 262 263 263 263 263 263 263 264 264 265 266 267 268 268 267 267 266 264 263 263 263 262 262 261
Wind_Speed
7 6 6 6 5 5 5 5 6 5 6 7 6 7 6 7 6 5 5 5 5 5 5 6 7 5 5 5 5 5 7 6 11 3 2 2 7 8 8 8 6 5 6
5 5 4 6 6 6 6 6 6 7 6 5 5 5 5 6 6 6 6 6 6 6 6 5 7 4 7 7 5 7 7 6 8 15 3 4 4 9 7 8 7 5 5
6 7 8 7 7 7 6 6 6 6 6 6 7 7 8 7 8 7 6 6 6 6 6 7 9 6 8 5 5 6 5 5 5 3 3 1 2 4 3 3 6 4 5
7 7 7 8 7 6 6 7 7 7 7 7 6 6 6 6 5 6 6 7 7 7 6 6 7 7 8 8 6 7 5 4 2 2 2 2 1 1 3 6 6 4 5
6 7 7 6 6 6 7 7 7 6 6 6 6 6 6 6 5 7 6 6 6 8 7 7 6 6 8 7 5 6 4 5 3 5 3 2 4 4 9 6 7 6 4
5 5 5 5 6 6 7 7 6 7 6 6 6 6 7 5 12 14 10 6 7 7 9 8 6 7 8 10 11 12 8 7 8 6 7 7 10 6 5 6 7 6 6
6 5 6 6 6 6 7 7 7 8 7 7 7 7 7 7 13 13 13 6 6 7 8 8 9 6 7 7 10 13 14 16 17 10 11 11 10 9 8 9 12 8 6
4 4 5 6 6 7 7 7 8 5 6 7 6 6 6 6 15 16 15 8 8 8 8 8 9 11 7 7 8 9 9 8 10 9 12 12 6 8 12 11 12 7 3
7 8 9 9 9 8 8 8 7 6 7 6 6 7 7 8 15 17 15 8 9 10 7 7 8 11 12 16 9 10 9 8 6 11 14 15 13 13 10 6 6 9 2
4 5 5 5 6 7 8 8 6 6 8 7 9 6 7 8 12 15 14 6 9 8 7 7 11 10 17 18 10 9 11 10 5 5 4 5 6 7 14 6 7 9 3
4 5 5 5 6 6 6 5 6 7 7 6 7 7 7 6 8 14 15 7 7 8 7 8 4 13 18 18 19 9 12 7 7 3 0 1 2 3 2 1 2 5 4
3 4 5 5 5 5 6 7 5 6 7 6 5 7 4 6 8 13 16 16 16 8 9 7 8 17 19 17 14 17 20 16 3 3 3 1 1 1 1 3 3 3 4
2 4 5 5 6 5 6 7 6 4 4 6 5 6 7 5 4 13 15 17 16 10 8 12 21 22 20 16 16 18 15 3 4 3 4 4 4 4 4 4 4 6 6
4 5 4 4 5 5 5 6 6 5 5 5 6 7 8 8 7 6 9 9 11 11 13 9 12 16 17 14 7 9 6 5 7 7 6 5 4 4 5 4 3 3 1
3 4 4 4 5 6 5 6 6 6 7 6 7 6 8 10 8 17 17 11 11 14 16 9 7 3 5 6 6 6 2 4 6 6 6 7 6 6 5 5 3 4 3
4 3 3 3 3 4 6 8 9 15 16 17 19 15 8 18 22 23 24 24 25 25 11 10 10 8 7 7 7 6 4 6 7 7 7 7 7 7 7 6 5 4 5
5 4 3 4 4 4 4 5 10 9 15 17 16 18 20 21 23 24 24 24 25 22 10 10 10 9 6 7 8 8 8 8 8 7 8 8 7 7 8 7 7 7 6
4 5 3 3 3 4 4 5 5 6 10 11 12 16 19 21 22 24 25 23 10 8 8 10 11 10 8 7 8 8 8 7 7 8 8 7 7 7 7 8 8 8 7
3 3 3 3 3 5 5 5 5 6 7 8 10 14 11 20 23 22 20 7 8 8 8 9 9 10 10 7 7 8 9 9 9 8 8 8 8 8 7 8 8 12 11
3 5 4 2 3 3 3 5 6 6 7 7 8 9 9 9 9 9 7 8 9 10 10 10 10 9 10 9 8 7 8 8 8 8 8 8 8 8 8 9 9 9 9
2 2 4 2 3 4 4 5 6 6 7 7 8 9 21 12 10 9 9 8 8 9 10 11 10 10 10 11 10 8 9 8 8 9 8 8 8 9 9 8 9 9 8
2 2 2 3 3 4 4 4 6 7 7 8 9 9 21 9 9 9 9 9 8 9 8 10 10 9 9 11 12 10 9 9 8 8 9 8 8 8 8 8 8 7 9
2 2 2 3 3 5 5 3 5 6 7 8 9 9 8 8 9 9 10 10 9 9 9 9 10 9 9 11 10 10 11 9 8 8 8 8 8 8 8 8 8 9 9
1 3 3 4 3 3 3 5 6 7 8 8 9 9 9 9 10 11 11 10 10 10 10 9 9 13 12 11 10 9 10 9 6 6 10 7 8 8 8 7 8 11 9
2 3 2 3 4 4 5 6 7 7 8 8 9 9 9 10 10 11 10 10 10 10 11 10 9 12 14 15 14 16 15 15 11 7 6 8 9 11 9 8 9 9 10
2 2 3 3 4 4 4 6 7 7 8 9 9 9 10 10 10 10 10 10 10 10 13 10 11 14 15 13 14 15 15 15 11 10 7 6 7 7 8 9 12 8 10
Wind_Direction
36 34 32 16 13 32 36 21 10 2 7 14 6 349 347 346 351 334 320 296 288 286 283 281 280 275 252 251 234 238 235 225 253 219 124 171 182 189 178 197 182 177 176
34 40 34 36 11 18 23 12 1 1 4 0 354 349 352 356 344 345 341 335 316 305 298 290 277 273 263 256 246 243 245 236 249 265 158 195 189 195 181 183 189 175 158
32 36 29 21 17 11 10 355 358 352 354 355 1 359 348 345 345 338 326 319 305 293 293 296 297 294 283 274 249 258 255 247 237 222 181 121 144 163 139 160 184 184 181
28 35 31 16 12 3 357 1 357 351 353 352 350 339 333 324 329 324 329 324 313 305 296 289 288 281 278 283 275 272 269 258 228 200 196 155 129 161 176 195 198 175 200
38 34 17 2 1 2 5 358 350 354 342 335 339 332 327 329 326 324 318 305 302 301 297 290 281 273 274 275 281 276 244 251 227 237 206 216 169 170 202 197 204 169 178
49 34 359 1 1 2 354 348 349 345 345 345 346 339 336 335 319 312 309 298 291 285 288 288 283 266 262 256 255 252 237 248 248 236 245 230 234 215 177 189 168 166 216
37 13 3 355 349 347 339 347 347 341 338 340 337 339 324 312 309 312 305 290 280 282 290 293 293 284 264 269 262 251 241 229 228 227 236 231 240 203 169 184 197 206 200
38 20 6 360 354 349 349 351 345 337 339 336 330 312 295 297 324 325 320 307 296 280 268 269 274 284 266 254 262 267 263 249 239 236 236 249 229 180 197 202 202 183 88
7 7 3 358 347 344 340 332 321 321 327 323 316 317 322 320 323 321 319 307 297 290 282 272 270 283 280 271 265 265 261 252 240 245 254 262 254 216 200 131 169 159 192
359 347 340 335 325 322 320 326 325 329 322 326 320 312 297 300 313 322 323 303 300 298 291 266 257 269 285 277 256 245 265 266 225 242 255 243 237 223 206 224 175 191 153
348 332 322 317 311 297 304 304 304 307 304 300 296 299 295 287 299 314 318 305 290 297 298 299 276 271 284 288 272 248 247 268 236 239 218 47 85 104 88 74 213 219 187
299 300 300 298 296 294 286 289 283 287 293 294 297 303 288 295 306 319 320 315 308 306 300 298 291 276 280 277 285 270 267 258 131 136 134 158 217 162 118 95 71 56 38
255 285 282 279 286 289 295 295 296 280 285 300 311 312 312 299 270 294 307 310 305 298 288 286 299 304 276 276 273 280 272 198 163 158 204 205 172 148 135 117 103 105 89
281 288 287 294 309 293 288 294 294 297 298 290 303 299 305 308 303 305 310 305 285 285 283 282 275 289 280 267 267 273 271 185 193 202 210 191 150 164 169 174 187 160 150
297 300 298 297 298 304 294 288 285 275 266 282 286 281 297 301 300 304 310 310 305 300 302 291 287 268 261 255 252 247 207 179 204 207 195 188 192 185 193 166 181 164 195
293 283 265 280 281 289 300 305 292 293 297 296 296 293 296 297 305 307 307 307 306 306 296 289 284 275 247 254 252 247 214 212 212 208 212 203 199 197 189 180 179 181 199
247 264 247 271 285 296 302 299 312 314 302 302 302 303 308 307 308 309 309 308 308 309 292 289 284 271 250 242 247 246 228 224 217 215 219 214 208 195 191 185 190 185 189
240 255 257 259 263 271 274 285 283 288 308 314 310 310 310 315 315 313 313 315 311 300 291 295 295 289 278 244 248 245 234 227 213 220 216 209 210 199 192 195 192 192 188
226 231 231 237 245 260 272 276 274 279 280 285 301 308 310 311 312 309 311 298 293 296 293 288 292 294 287 261 246 249 239 231 220 219 216 203 202 201 206 201 196 194 185
233 251 251 251 269 275 268 274 285 281 285 284 287 290 304 306 304 310 311 306 301 301 304 301 298 289 283 270 265 255 248 234 221 220 219 208 203 205 211 203 195 190 193
213 244 254 275 270 270 278 275 275 278 281 285 287 289 299 307 310 305 302 295 292 293 297 298 301 301 302 300 287 265 252 240 222 223 219 210 203 206 211 206 200 196 187
213 229 226 243 257 257 252 249 276 282 284 286 292 294 305 305 293 293 292 293 292 292 291 293 295 296 298 296 292 279 264 246 225 225 223 212 205 207 204 201 195 189 178
189 277 285 275 258 276 283 266 274 282 286 290 293 296 297 295 295 294 295 297 299 298 296 295 296 293 295 293 290 291 286 267 239 223 224 215 205 200 196 196 194 186 180
192 251 260 269 272 273 271 286 287 283 287 292 293 294 297 298 298 299 297 296 296 296 295 293 291 293 296 293 296 288 282 279 258 222 214 208 204 196 195 195 192 189 181
229 266 277 280 280 272 281 285 285 286 286 290 296 297 297 296 296 296 297 297 296 296 296 297 296 295 294 294 290 292 285 278 266 226 209 202 197 191 192 193 187 183 174
252 261 253 260 269 268 264 286 293 297 297 297 294 294 294 293 293 296 300 300 299 301 304 298 295 295 295 293 292 289 285 274 261 223 203 193 189 186 187 189 183 177 170